Starlink 1371

operational
NORAD ID: 45542 Int'l Des: 2020-025 Owner: SPXS Country: US Constellation: starlink
LEOCIRCULARSTARLINK_TYPE

关于 Starlink 1371

正在加载描述...

实时位置

正在加载3D地球...

即将过境

高度历史

Altitude vs Time

uPlot chart will show altitude changes over time

两行轨道根数

1 45542U 20025M 26033.35025694 .00085918 00000-0 19613-2 0 9990
2 45542 53.0518 257.5708 0004699 132.9978 227.1421 15.42156503319874
Epoch: Feb 2, 2026 • Age: 33 hours

当前状态

高度 436.3 km
速度 7.65 km/s
星下点 13.74°N, 19.99°E
发射日期 Apr 22, 2020
运行时间 5.7 years
类型 internet

技术详情

分类 Payload
质量 260.00 kg
干质量 248.00 kg
总质量 260.00 kg
长度 0.20 m
直径 2.80 m
跨度 9.00 m
形状 Box + pan
制造商 SPXS
平台类型 Starlink
阶段状态 In Orbit
所有者/国家 SPXS/US

大型星座

Loading constellations...